Regional Weather Roundup
Issued by NWS

Home | Current Version | Previous Version | Graphics & Text | Print | Product List | Glossary On
Versions: 1 2 3 4 5 6 7 8 9 10 11 12 13 14 15 16 17 18 19 20 21 22 23 24 25 26 27 28 29 30 31 32 33 34 35 36 37 38 39 40 41 42 43 44 45 46 47 48 49 50
000
ASUS43 KMKX 311410
RWRWI

WISCONSIN REGIONAL WEATHER ROUNDUP
NATIONAL WEATHER SERVICE MILWAUKEE/SULLIVAN WI
800 AM CST SAT JAN 31 2015

NOTE: "FAIR" INDICATES FEW OR NO CLOUDS BELOW 12,000 FEET WITH NO
SIGNIFICANT WEATHER AND/OR OBSTRUCTIONS TO VISIBILITY.

WIZ001-002-006>008-014>016-023>028-311500-
NORTHWEST WISCONSIN

CITY           SKY/WX    TMP DP  RH WIND       PRES   REMARKS
SUPERIOR ARPT  CLOUDY    22  15  74 N8        30.21S WCI  13
ASHLAND        CLOUDY    22  15  75 W6        30.19R WCI  14
HAYWARD        CLOUDY    21  15  78 N3        30.15R
SIREN          CLOUDY    23  18  81 N7        30.18R WCI  15
CUMBERLAND     CLOUDY    23  21  93 N7G16     30.14R WCI  15
RICE LAKE      CLOUDY    21  17  85 N3        30.17R
CHETEK         CLOUDY    21  15  79 CALM      30.16R
LADYSMITH      CLOUDY    20  15  79 N6        30.15R WCI  13
EAU CLAIRE     CLOUDY    23  15  71 CALM      30.15S
MENOMONIE      CLOUDY    24  18  75 CALM      30.17R
NEW RICHMOND   CLOUDY    26  22  86 N5        30.17R WCI  20
OSCEOLA        CLOUDY    26  23  86 N7        30.19S WCI  19
$$

WIZ003>005-009-010-017-018-311500-
NORTH CENTRAL WISCONSIN

CITY           SKY/WX    TMP DP  RH WIND       PRES   REMARKS
MANITOWISH WTR CLOUDY    18  16  91 NW5       30.10R WCI  11
ARBOR VITAE    CLOUDY    20  17  89 NW3       30.10S
WOODRUFF       CLOUDY    20  17  89 NW3       30.10S
RHINELANDER    CLOUDY    19  14  81 NW3       30.10R
EAGLE RIVER    CLOUDY    18  14  86 CALM      30.09R
LAND O LAKES   CLOUDY    19  16  91 CALM      30.09S
PHILLIPS       CLOUDY    19  15  85 N3        30.11S
TOMAHAWK       CLOUDY    20  15  82 CALM      30.11S
MEDFORD        CLOUDY    20  15  82 NW3       30.10S
MERRILL        CLOUDY    20  14  77 CALM      30.11S
$$

WIZ029-030-035-036-043>047-311500-
CENTRAL WISCONSIN

CITY           SKY/WX    TMP DP  RH WIND       PRES   REMARKS
WAUSAU         CLOUDY    20  12  71 W3        30.11S
MOSINEE        CLOUDY    19  16  86 CALM      30.13S
MARSHFIELD     CLOUDY    22  13  68 W3        30.13R
STEVENS POINT  CLOUDY    20  12  71 CALM      30.14S
WAUPACA        CLOUDY    24  16  71 CALM      30.16S
WAUTOMA        CLOUDY    21  16  81 CALM      30.17R
WISC RAPIDS    CLOUDY    22  14  71 CALM      30.16R
CAMP DOUGLAS   CLOUDY    27  19  74 SW3       30.15S
$$

WIZ011>013-019>022-031-037>040-048>050-311500-
NORTHEAST WISCONSIN

CITY           SKY/WX    TMP DP  RH WIND       PRES   REMARKS
ANTIGO         CLOUDY    19  14  82 NW6       30.09S WCI  10
SHAWANO        CLOUDY    23  14  67 CALM      30.16R
OCONTO         CLOUDY    22  14  70 MISG      30.15F
STURGEON BAY   CLOUDY    21  12  68 W7        30.17R WCI  13
GREEN BAY      CLOUDY    22  17  81 SW3       30.16S
MANITOWOC      CLOUDY    26  18  71 W9        30.16S WCI  17
APPLETON       CLOUDY    21  16  79 SW8       30.15S WCI  12
CLINTONVILLE   CLOUDY    21  14  73 CALM      30.15S
OSHKOSH        CLOUDY    24  16  71 SW6       30.16R WCI  17
$$

WIZ032>034-041-042-053>061-311500-
SOUTHWEST WISCONSIN

CITY           SKY/WX    TMP DP  RH WIND       PRES   REMARKS
LA CROSSE      CLOUDY    25  17  72 S6        30.17S WCI  18
SPARTA         CLOUDY    26  17  68 CALM      30.18R
VIROQUA        CLOUDY    22  18  81 SW5       30.14S WCI  16
BOSCOBEL       PTCLDY    14  10  84 CALM      30.20S
PRAIRIE DU CHI PTCLDY    19  14  81 CALM      30.19F
PLATTEVILLE    PTCLDY    21  17  85 S6        30.18S WCI  14
$$

WIZ056-057-062-063-064-067-068-311500-
SOUTH CENTRAL WISCONSIN

CITY           SKY/WX    TMP DP  RH WIND       PRES   REMARKS
REEDSBURG      CLOUDY    23  17  80 CALM      30.16S
BARABOO/DELLS  CLOUDY    23  16  75 SW5       30.16S WCI  16
LONE ROCK      FAIR      15  11  83 CALM      30.19S
MINERAL POINT  PTCLDY    23  18  80 SW3       30.16S
MADISON        PTCLDY    23  15  71 CALM      30.18S
MIDDLETON      CLEAR     22  16  78 CALM      30.18S
WATERTOWN      CLEAR     22  18  84 SW5       30.18S WCI  16
MONROE         CLEAR     23  19  86 SW10      30.18R WCI  12
JANESVILLE     CLEAR     21  18  86 SW3       30.21R
$$

WIZ051-052-058>065-066-070>072-311500-
SOUTHEAST WISCONSIN

CITY           SKY/WX    TMP DP  RH WIND       PRES   REMARKS
MILWAUKEE      PTCLDY    26  17  68 W8        30.19R WCI  18
WAUKESHA       PTCLDY    21  16  79 SW5       30.19R WCI  15
MILWAUKEE/TIMM CLOUDY    25  16  68 SW9       30.20R WCI  15
RACINE         CLOUDY    27  18  69 SW8       30.21S WCI  19
BURLINGTON     CLEAR     24  18  76 SW9       30.20R WCI  14
KENOSHA        MOCLDY    27  19  72 SW12      30.20S WCI  17
FOND DU LAC    CLOUDY    22  16  78 SW7       30.17S WCI  13
SHEBOYGAN      CLOUDY    25  17  72 W13       30.17R WCI  14
WEST BEND      CLEAR     25  18  74 W7        30.17S WCI  17
JUNEAU         CLEAR     18  15  88 SW5       30.19R WCI  11
$$

LSZ147-162-311500-
LAKE SUPERIOR

STATION/POSITION TIME  TEMP    WIND        PRES    WAVE
                       AIR SEA DIR/SP/G            HT/PER
                 (UTC) (F)     (DEG/KT/KT) (MB)    (FT/S)
DEVILS ISLAND    1400   23     320/ 14/ 16 1023.7R
PORT WING        1340   23     320/ 13/ 15 1023.0R
SAXON HARBOR     1300   23     250/  3/  6 1021.3
$$

LMZ867-665-643>646-311500-
LAKE MICHIGAN

STATION/POSITION TIME  TEMP    WIND        PRES    WAVE
                       AIR SEA DIR/SP/G            HT/PER
                 (UTC) (F)     (DEG/KT/KT) (MB)    (FT/S)
NORTHPORT PIER   1320   21     250/  5/ 11 1020.7R
SISTER BAY       1313   21     250/  9/ 11   N/A
KEWAUNEE LAKESHO 1300   24     280/  6/ 10 1020.2R
SHEBOYGAN LAKESH 1400   26     250/  9/ 10 1022.9R
PORT WASHINGTON  1300   26     260/  8/ 12 1022.4S
MILWAUKEE LAKESH 1300   26     240/ 13/ 15   N/A
KENOSHA   LAKESH 1400   29     240/ 12/ 17 1022.7S
$$

TC  - TEMPERATURE IN CELSIUS
VSB - VISIBILITY IN STATUTE MILES
WCI - WIND CHILL INDEX
HX  - HEAT INDEX




USA.gov is the U.S. government's official web portal to all federal, state and local government web resources and services.